Weather in Rotherham

United Kingdom     53°25′49″N   1°21′16″W
В апреле 2022 года жителям России запретили посещать сайт meteo.paraplan.net по решению Генеральной прокуратуры. Аудитория сайта уменьшилась в 10 раз. Владельцы сайта не видят смысла в поддержке погодного сервера в таких условиях. Сайт будет закрыт в октябре.
temp.,
°C
wind,
m/s
gust,
m/s
humid.,
%
clouds,
%
prec.,
mm/h
press.,
hPa
HPBL,
m
30 september, fri
fri3001:00+10nw01905 0.0 101022
04:00+9ssw119297 0.0 100935
07:00+9s3986100 0.0 1007276
10:00+12s61376100 0.0 1004608
13:00+14s81770100 0.1 9981192
16:00+12ssw92187100 6.4 9941187
19:00+13w410870 10.1 994492
22:00+12wsw4118749 0.0 997630
1 october, sat
sat101:00+12wsw4108388 0.0 997747
04:00+12w5118084 0.3 9991155
07:00+12wsw4107899 0.4 10011103
10:00+13wsw5117456 0.4 10031374
13:00+13w511725 0.8 10051242
16:00+15w612610 0.1 10061447
19:00+14wsw511695 0.1 1008985
22:00+12wsw411765 0.0 1010872
2 october, sun
sun201:00+12w511787 0.0 1012939
04:00+11wsw41178100 0.0 1014679
07:00+11w3108191 0.0 1016485
10:00+13w3569100 0.0 1017604
13:00+15w3458100 0.0 10181186
16:00+14wnw2261100 0.0 1018762
19:00+12wnw22715 0.0 101971
22:00+11wnw23795 0.0 102183
3 october, mon
mon301:00+10wnw118193 0.0 102234
04:00+9wnw11815 0.0 102215
07:00+9ssw1181100 0.0 102210
10:00+12s236799 0.0 1023253
13:00+16s3452100 0.0 1022837
16:00+17ssw355089 0.0 1021911
19:00+15ssw2667100 0.0 1020296
22:00+14ssw397595 0.0 1019360
4 october, tue
tue401:00+13s31083100 0.0 1017353
04:00+12s3108594 0.0 1015324
07:00+12s41186100 0.0 1013313
10:00+15s4107343 0.0 1012438
13:00+19ssw6105797 0.0 1010912
16:00+19ssw61357100 0.0 10071155
19:00+18sw61468100 0.0 10081009
22:00+17sw61174100 0.0 10081082